Flag for U.S.A. Weather past 2 weeks in Bellingham, Washington, U.S.A.

Now
61 °F

Clear.


Feels Like: 61 °F
Forecast: 56 / 79 °F
Wind: 3 mph from South

Location: Bellingham International Airport

Current Time: Jul 28, 2014 at 1:41:26 AM

Latest Report: Jul 28, 2014 at 12:53 AM


Visibility: 10 mi

Pressure: 30.11 "Hg

Humidity: 87%

Dew point: 57 °F

Location of BellinghamLocation

Historic Weather in Bellingham — Graph

°F

Bellingham temperature yesterday

Maximum temperature yesterday: 78 °F (at 3:53 PM)
Minimum temperature yesterday: 53 °F (at 5:53 AM)
Average temperature yesterday: 67 °F

Past Weeks' High & Low Weather Summary

 TemperatureHumidityPressure
High85 °F (Jul 13, 2:53 PM)94% (Jul 24, 9:00 AM)30.22 "Hg (Jul 24, 9:00 AM)
Low51 °F (Jul 26, 5:53 AM)41% (Jul 17, 5:53 PM)29.90 "Hg (Jul 16, 8:53 PM)
Average64 °F72%30.06 "Hg
* Reported Jul 12 11:53 PM — Jul 27 11:53 PM, Bellingham, Weather by CustomWeather, © 2014

Note: Actual official high and low records may vary slightly from our data, if they occured in-between our weather recording intervals... More about our weather records

Advertising

Bellingham weather history for previous 24 hours

 ConditionsComfort  
Time TempWeatherWind HumidityBarometerVisibility
11:53 PM
Jul 27
62 °FClear.5 mph83%30.11 "Hg10 mi
10:53 PM62 °FClear.No wind83%30.11 "Hg10 mi
9:53 PM63 °FSunny.No wind84%30.10 "Hg10 mi
8:53 PM66 °FSunny.No wind75%30.10 "Hg10 mi
7:53 PM73 °FSunny.No wind55%30.09 "Hg10 mi
6:53 PM77 °FSunny.5 mph52%30.10 "Hg10 mi
5:53 PM78 °FSunny.6 mph46%30.11 "Hg10 mi
4:53 PM78 °FSunny.6 mph48%30.12 "Hg10 mi
3:53 PM78 °FSunny.5 mph43%30.14 "Hg10 mi
2:53 PM76 °FSunny.8 mph47%30.15 "Hg10 mi
1:53 PM76 °FSunny.7 mph52%30.16 "Hg10 mi
12:53 PM76 °FSunny.6 mph54%30.17 "Hg10 mi
11:53 AM75 °FSunny.6 mph54%30.18 "Hg10 mi
10:53 AM73 °FSunny.5 mph59%30.19 "Hg10 mi
9:53 AM68 °FSunny.5 mph65%30.21 "Hg10 mi
8:53 AM64 °FSunny.5 mph75%30.22 "Hg10 mi
7:53 AM62 °FSunny.No wind80%30.21 "Hg10 mi
6:53 AM57 °FSunny.No wind87%30.21 "Hg9 mi
5:53 AM53 °FFog.No wind89%30.20 "Hg6 mi
4:53 AM54 °FClear.No wind90%30.19 "Hg10 mi
3:53 AM57 °FClear.3 mph87%30.18 "Hg10 mi
2:53 AM59 °FClear.5 mph84%30.17 "Hg10 mi
1:53 AM59 °FClear.3 mph87%30.17 "Hg10 mi
Weather by CustomWeather, © 2014

See weather overviewHow to use our weather pages